Weather in Aliskerovo

Russia / Chukotka Autonomous Okrug     67°46′30″N   167°31′14″E
temp.,
°C
wind,
m/s
gust,
m/s
humid.,
%
clouds,
%
prec.,
mm/h
press.,
hPa
HPBL,
m
27 october, wed
wed2700:00−27nnw1110087 0.1 10169
03:00−27nw1110090 0.0 10169
06:00−28nnw22100100 0.1 10189
09:00−29nw2110088 0.0 102010
12:00−27nw2210082 0.0 102123
15:00−27nnw229872 0.0 102110
18:00−31nnw1110055 0.0 10249
21:00−32n1110059 0.0 10259
28 october, thu
thu2800:00−32nne0010063 0.0 10259
03:00−32ese1110069 0.0 10259
06:00−32se1110065 0.0 10269
09:00−32se1110039 0.0 10259
12:00−29se119851 0.0 102419
15:00−29sse119944 0.0 10239
18:00−31se1110064 0.0 10239
21:00−32se2110044 0.0 10229
29 october, fri
fri2900:00−32sse2210074 0.0 10219
03:00−33se2210087 0.0 10219
06:00−33sse2210090 0.0 10209
09:00−34se2210087 0.0 10209
12:00−30sse2210091 0.0 101830
15:00−30sse2210071 0.0 101710
18:00−33sse2210075 0.0 101810
21:00−33sse2210087 0.0 101810
30 october, sat
sat3000:00−33sse2210088 0.0 101810
03:00−31sse22100100 0.0 101717
06:00−30se22100100 0.0 101612
09:00−29se219889 0.0 101612
12:00−23sse1187100 0.0 101548
15:00−21sse0087100 0.0 101420
18:00−22nnw1190100 0.0 10159
21:00−23nnw1191100 0.0 10179
31 october, sun
sun3100:00−25n2292100 0.0 101810
03:00−28n2296100 0.0 10199
06:00−26nnw1197100 0.0 101911
09:00−23nw1199100 0.1 101940
12:00−22nw229793 0.1 101991
15:00−23nw119982 0.1 102012
18:00−25nw2210092 0.1 102110
21:00−27nnw1110089 0.0 102310